Location: Seattle
(47.6064°N, 122.3308°W)
Time: 02:22:15
(UTC-08:00)

A-11 Canister half - Pass Details

Date: 01 December 2020
Orbit: 1524 x 1684 km, 47.3° (Epoch: 21 January)

Event Time Altitude Azimuth Distance (km) Brightness Sun altitude
Rises 12:13:01 0° 291° (WNW) 4,885 11.5 20.4°
Reaches altitude 10° 12:16:37 10° 282° (WNW) 3,873 11.1 20.3°
Maximum altitude 12:24:50 31° 225° (SW) 2,513 11.2 20.2°
Drops below altitude 10° 12:32:49 10° 168° (SSE) 3,752 12.6 20.0°
Sets 12:36:16 0° 158° (SSE) 4,712 12.6 19.9°
